Terminal Aerodrome Forecast
Issued by NWS Charleston, WV

Current Version | Previous Version | Text Only | Print | Product List | Glossary Off
Versions: 1 2 3 4 5 6 7 8 9 10 11 12 13 14 15 16 17 18 19 20 21 22 23 24 25 26 27

000
FTUS41 KRLX 090600 CCA
TAFBKW
TAF COR
KBKW 090636Z 0906/1006 27006KT P6SM BKN009
     FM091100 26005KT P6SM SCT009 BKN015
     FM091400 27008KT P6SM BKN025
     FM092300 28006KT P6SM SCT045=

USA.gov is the U.S. government's official web portal to all federal, state and local government web resources and services.